Regional Weather Roundup
Issued by NWS

Home | Current Version | Previous Version | Text Only | Print | Product List | Glossary On
Versions: 1 2 3 4 5 6 7 8 9 10 11 12 13 14 15 16 17 18 19 20 21 22 23 24 25 26 27 28 29 30 31 32 33 34 35 36 37 38 39 40 41 42 43 44 45 46 47 48 49 50
000
ASUS46 KSTO 250215
RWRCA

NORTHERN AND CENTRAL CA REGIONAL WEATHER ROUNDUP
NATIONAL WEATHER SERVICE SACRAMENTO CA
700 PM PDT WED MAY 24 2017

NOTE: FAIR INDICATES FEW OR NO CLOUDS BELOW 12,000 FEET WITH NO
SIGNIFICANT WEATHER AND/OR OBSTRUCTIONS TO VISIBILITY.

CAZ001-003-250300-
NORTHWEST AREA

CITY           SKY/WX    TMP DP  RH WIND       PRES   REMARKS
CRESCENT CITY  SUNNY     53  46  77 N26G39    29.72F
UKIAH          MOSUNNY   74  56  53 S8        29.66S
$$

CAZ006-505>513-250300-
BAY AREA

CITY           SKY/WX    TMP DP  RH WIND       PRES   REMARKS
SANTA ROSA     CLOUDY    56  51  84 SW8       29.75F
SAN RAFAEL     N/A       61  MM  MM MISG
NAPA           MOSUNNY   63  53  70 SW18      29.73S
CONCORD        MOSUNNY   62  50  64 W20       29.72F
OAKLAND CITY   N/A      MM  MM  MM MISG
OAKLAND        PTSUNNY   63  50  62 NW8       29.75F
SAN FRAN CITY  N/A       57  MM  74 MISG
SAN FRAN ARPT  PTSUNNY   62  47  57 S15       29.74F
LIVERMORE      MOSUNNY   65  51  60 W15       29.70F
HAYWARD        MOSUNNY   64  48  56 NW10      29.74F
REDWOOD CITY   N/A       68  MM  51 MISG
MOFFETT ARPT   MOSUNNY   66  54  65 N13       29.73F
SAN JOSE ARPT  PTSUNNY   69  53  56 NW9       29.72F
$$
CAZ034-037-514>518-250300-
CENTRAL COAST

CITY           SKY/WX    TMP DP  RH WIND       PRES   REMARKS
WATSONVILLE    PTSUNNY   57  52  83 SW8       29.80F
SALINAS        CLOUDY    58  51  78 W14       29.79F
MONTEREY       CLOUDY    57  51  80 SW13      29.80F
SAN LUIS OBISP CLOUDY    62  51  67 NW10      29.81S
SANTA MARIA    PTSUNNY   59  51  75 NW13      29.83S
$$
CAZ015-016-250300-
NORTHERN SACRAMENTO VALLEY

CITY           SKY/WX    TMP DP  RH WIND       PRES   REMARKS
REDDING        PTSUNNY   88  57  34 S18G25    29.52F
RED BLUFF      PTSUNNY   87  56  34 SE16      29.56S
OROVILLE       SUNNY     85  51  31 S21G28    29.59S
$$
CAZ016>018-250300-
SOUTHERN SACRAMENTO VALLEY

CITY           SKY/WX    TMP DP  RH WIND       PRES   REMARKS
AUBURN         MOSUNNY   77  45  31 S8        29.69F
BEALE AFB      SUNNY     82  55  39 S17       29.58F
LINCOLN        FAIR      79  48  34 S13       29.61S
MARYSVILLE     SUNNY     78  56  46 S21G26    29.60S
SAC INTL ARPT  PTSUNNY   70  55  59 S18G26    29.61F
MATHER AIRPORT PTSUNNY   72  50  46 SW18      29.65F
DOWNTOWN SAC   N/A       69  MM  MM MISG
SAC EXEC ARPT  MOSUNNY   67  53  61 SW15G26   29.65F
VACAVILLE      MOSUNNY   65  52  62 SW31G39   29.63F
TRAVIS AFB     MOSUNNY   62  50  63 W24G33    29.66S
$$
CAZ019>021-250300-
SAN JOAQUIN VALLEY

CITY           SKY/WX    TMP DP  RH WIND       PRES   REMARKS
STOCKTON       MOSUNNY   78  51  38 NW9       29.66S
MODESTO        MOSUNNY   84  48  28 NW9       29.63F
MERCED         SUNNY     86  34  15 W10       29.63F
LEMOORE        PTSUNNY   88  47  24 N9        29.64F
FRESNO         PTSUNNY   86  53  32 NW10      29.63F
HANFORD        PTSUNNY   87  58  37 NW12      29.63F
PORTERVILLE      N/A     90  52  27 NW8       29.64F
BAKERSFIELD    SUNNY     90  35  14 NW15      29.65S
$$
CAZ011-012-071-250300-
NORTHERN MOUNTAINS

CITY           SKY/WX    TMP DP  RH WIND       PRES   REMARKS
YREKA          SUNNY     69  29  22 N21       29.74S
MOUNT SHASTA   SUNNY     70  29  21 VRB6      29.72F
ALTURAS        MOSUNNY   71  32  23 NW29G36   29.70F
$$
CAZ011-012-071-250300-
SIERRA NEVADA MTNS

CITY           SKY/WX    TMP DP  RH WIND       PRES   REMARKS
BLUE CANYON    SUNNY     64  41  42 S10       29.88F
TRUCKEE        MOSUNNY   63  32  31 SW7G16    29.88S
TAHOE VLY ARPT MOSUNNY   63  35  35 SW10G17   29.89F
MAMMOTH LAKES  FAIR      63  20  19 W22G28    29.97F
$$



USA.gov is the U.S. government's official web portal to all federal, state and local government web resources and services.